Dauntless Aviation
Greetings, Guest! To participate, [sign up for a free account] or [log in]
Airports Europe United Kingdom
EGPY

Dounreay Thurso

UNITED KINGDOM

Airport Info
Edit

Location

Latitude / Longitude: 58°35'3"N / 3°43'31"W
  58°35.052'N / 3°43.518'W
  58.5842 / -3.7253

Runway Information

Runway 04 /22

Dimensions: 3300 x 100 ft.
Surface: U
 
Runway 04
Runway 22
Latitude: 58.579444 58.586944
Longitude: -3.731389 -3.721667
Elevation: 130 ft. 130 ft.
Runway true heading: 33.4 213.4
 
Satellite photo at:
Airport distance calculator
From:
Weather Reports

METAR

EGPC
22.2nm E
EGPC 281650Z 18016KT 9999 -SHRA BKN026 06/03 Q0983
EGPA
34.2nm NE
EGPA 281650Z 18016KT 9999 RADZ FEW010 SCT015 BKN030 07/05 Q0983

TAF

EGPC
22.2nm E
TAF EGPC 281357Z 2815/2824 18012KT 9999 SCT022 PROB30 TEMPO 2815/2818 16018G28KT 8000 SHRA BKN010 TEMPO 2818/2822 15018G28KT 6000 RADZ BKN010 PROB40 TEMPO 2822/2824 15018G28KT 8000 SHRA BKN012
EGPA
34.2nm NE
TAF EGPA 281357Z 2815/2824 18014KT 9999 FEW020 SCT030 TEMPO 2815/2824 19018G30KT 6000 RADZ BKN010
Safelog

 

Dauntless Aviation

© 2007-2015 Dauntless Aviation, all rights reserved
Information provided via PilotNav comes from a variety of official and unofficial data sources. As errors are possible, do not use PilotNav for primary flight planning purposes. Verify any information that you receive via PilotNav with current and canonical charts and other official documents. The material in this database is subject to database copyrights held by Dauntless Aviation and may not be copied without the express permission of Dauntless Aviation - licenses for use of part of all of this data are available for purchase; enquire via the Dauntless Aviation helpdesk. A number of mechanisms and markers exist in the database to protect against and identify infringement / copyright. Automated queries against this website are stictly prohibited, and all activity is logged and analyzed.